Hourly Weather Kozlovka

Today, 21 October, Wednesday

Time Temperature Precipitation Wind Pressure Humidity
00:00 +1°C° 0 mm 4 mps 747 mmHg 65%
01:00 +1°C° 0 mm 4 mps 747 mmHg 70%
02:00 0°C° 0 mm 4 mps 748 mmHg 75%
03:00 -1°C° 0 mm 5 mps 748 mmHg 83%
04:00 -1°C° 0 mm 4 mps 748 mmHg 85%
05:00 -1°C° 0 mm 4 mps 748 mmHg 88%
06:00 -1°C° 0 mm 4 mps 748 mmHg 91%
07:00 0°C° 0 mm 5 mps 749 mmHg 82%
08:00 +1°C° 0 mm 6 mps 749 mmHg 74%
09:00 +2°C° 0 mm 7 mps 750 mmHg 66%
10:00 +3°C° 0 mm 7 mps 750 mmHg 60%
11:00 +3°C° 0 mm 6 mps 750 mmHg 53%
12:00 +4°C° 0 mm 6 mps 750 mmHg 47%
13:00 +4°C° 0 mm 6 mps 750 mmHg 46%
14:00 +4°C° 0 mm 6 mps 750 mmHg 45%
15:00 +4°C° 0 mm 6 mps 750 mmHg 44%
16:00 +5°C° 0 mm 5 mps 750 mmHg 46%
17:00 +4°C° 0 mm 4 mps 750 mmHg 48%
18:00 +3°C° 0 mm 3 mps 750 mmHg 50%
19:00 +3°C° 0 mm 3 mps 750 mmHg 51%
20:00 +3°C° 0 mm 3 mps 750 mmHg 52%
21:00 +3°C° 0 mm 3 mps 750 mmHg 54%
22:00 +2°C° 0 mm 3 mps 750 mmHg 61%
23:00 +2°C° 0 mm 3 mps 750 mmHg 69%

Tomorrow, 22 October, Thursday

Time Temperature Precipitation Wind Pressure Humidity
00:00 +1°C° 0 mm 4 mps 750 mmHg 76%
01:00 +1°C° 0.1 mm 3 mps 750 mmHg 82%
02:00 +1°C° 0.1 mm 3 mps 750 mmHg 88%
03:00 +1°C° 0.1 mm 3 mps 750 mmHg 94%
04:00 +2°C° 0.1 mm 2 mps 750 mmHg 92%
05:00 +2°C° 0.1 mm 2 mps 750 mmHg 90%
06:00 +3°C° 0.1 mm 2 mps 750 mmHg 88%
07:00 +3°C° 0 mm 2 mps 750 mmHg 85%
08:00 +4°C° 0 mm 2 mps 750 mmHg 83%
09:00 +4°C° 0 mm 2 mps 750 mmHg 80%
10:00 +5°C° 0 mm 2 mps 750 mmHg 75%
11:00 +5°C° 0 mm 2 mps 750 mmHg 70%
12:00 +6°C° 0 mm 2 mps 750 mmHg 65%
13:00 +6°C° 0 mm 2 mps 750 mmHg 67%
14:00 +5°C° 0 mm 3 mps 749 mmHg 69%
15:00 +5°C° 0 mm 3 mps 749 mmHg 70%
16:00 +5°C° 0 mm 3 mps 749 mmHg 71%
17:00 +5°C° 0 mm 3 mps 749 mmHg 73%
18:00 +5°C° 0 mm 3 mps 748 mmHg 74%
19:00 +5°C° 0 mm 3 mps 748 mmHg 74%
20:00 +5°C° 0 mm 3 mps 748 mmHg 74%
21:00 +5°C° 0 mm 3 mps 747 mmHg 73%
22:00 +5°C° 0 mm 3 mps 747 mmHg 69%
23:00 +7°C° 0 mm 3 mps 747 mmHg 66%

Day after tomorrow, 23 October, Friday

Time Temperature Precipitation Wind Pressure Humidity
00:00 +7°C° 0 mm 3 mps 746 mmHg 62%
01:00 +7°C° 0.1 mm 3 mps 746 mmHg 63%
02:00 +7°C° 0.1 mm 3 mps 746 mmHg 65%
03:00 +8°C° 0.1 mm 3 mps 745 mmHg 66%
04:00 +8°C° 0.1 mm 3 mps 745 mmHg 71%
05:00 +8°C° 0.1 mm 3 mps 744 mmHg 76%
06:00 +8°C° 0.1 mm 3 mps 744 mmHg 80%
07:00 +8°C° 0 mm 4 mps 744 mmHg 76%
08:00 +8°C° 0 mm 5 mps 743 mmHg 72%
09:00 +9°C° 0 mm 6 mps 743 mmHg 68%
10:00 +10°C° 0 mm 6 mps 743 mmHg 64%
11:00 +11°C° 0 mm 6 mps 743 mmHg 60%
12:00 +14°C° 0 mm 6 mps 743 mmHg 56%
13:00 +15°C° 0 mm 6 mps 743 mmHg 55%
14:00 +15°C° 0 mm 7 mps 743 mmHg 53%
15:00 +16°C° 0 mm 7 mps 743 mmHg 51%
16:00 +14°C° 0 mm 6 mps 743 mmHg 57%
17:00 +13°C° 0 mm 5 mps 743 mmHg 64%
18:00 +11°C° 0 mm 4 mps 744 mmHg 70%
19:00 +11°C° 0 mm 3 mps 744 mmHg 73%
20:00 +10°C° 0 mm 3 mps 744 mmHg 77%
21:00 +9°C° 0 mm 3 mps 744 mmHg 81%
22:00 +9°C° 0 mm 3 mps 743 mmHg 81%
23:00 +9°C° 0 mm 3 mps 743 mmHg 82%

24 October, Saturday

Time Temperature Precipitation Wind Pressure Humidity
00:00 +9°C° 0 mm 3 mps 743 mmHg 82%
01:00 +9°C° 0 mm 3 mps 743 mmHg 79%
02:00 +9°C° 0 mm 3 mps 742 mmHg 76%
03:00 +10°C° 0 mm 4 mps 742 mmHg 73%
04:00 +10°C° 0 mm 4 mps 742 mmHg 68%
05:00 +10°C° 0 mm 4 mps 742 mmHg 64%
06:00 +10°C° 0 mm 4 mps 741 mmHg 60%
07:00 +11°C° 0 mm 4 mps 741 mmHg 62%
08:00 +10°C° 0 mm 5 mps 741 mmHg 64%
09:00 +12°C° 0 mm 5 mps 741 mmHg 66%
10:00 +13°C° 0 mm 5 mps 741 mmHg 61%
11:00 +15°C° 0 mm 5 mps 741 mmHg 57%
12:00 +16°C° 0 mm 5 mps 741 mmHg 52%
13:00 +16°C° 0 mm 5 mps 741 mmHg 50%
14:00 +16°C° 0 mm 5 mps 741 mmHg 48%
15:00 +17°C° 0 mm 5 mps 741 mmHg 47%
16:00 +15°C° 0 mm 4 mps 741 mmHg 52%
17:00 +14°C° 0 mm 3 mps 742 mmHg 57%
18:00 +13°C° 0 mm 2 mps 742 mmHg 62%
19:00 +13°C° 0 mm 2 mps 742 mmHg 62%
20:00 +13°C° 0 mm 1 mps 742 mmHg 63%
21:00 +13°C° 0 mm 1 mps 742 mmHg 64%
22:00 +13°C° 0 mm 1 mps 742 mmHg 65%
23:00 +13°C° 0 mm 1 mps 742 mmHg 66%

25 October, Sunday

Time Temperature Precipitation Wind Pressure Humidity
00:00 +13°C° 0 mm 2 mps 742 mmHg 67%
01:00 +12°C° 0.1 mm 2 mps 741 mmHg 71%
02:00 +12°C° 0.1 mm 1 mps 741 mmHg 74%
03:00 +12°C° 0.1 mm 1 mps 740 mmHg 77%
04:00 +12°C° 0 mm 2 mps 740 mmHg 79%
05:00 +12°C° 0 mm 2 mps 740 mmHg 82%
06:00 +10°C° 0 mm 3 mps 739 mmHg 84%
07:00 +11°C° 0 mm 3 mps 739 mmHg 83%
08:00 +12°C° 0 mm 4 mps 739 mmHg 82%
09:00 +12°C° 0 mm 5 mps 738 mmHg 81%
10:00 +13°C° 0.1 mm 5 mps 738 mmHg 78%
11:00 +13°C° 0.1 mm 6 mps 738 mmHg 75%
12:00 +14°C° 0.1 mm 7 mps 738 mmHg 72%
13:00 +14°C° 0.1 mm 7 mps 738 mmHg 67%
14:00 +14°C° 0.1 mm 7 mps 738 mmHg 62%
15:00 +14°C° 0.1 mm 7 mps 738 mmHg 57%
16:00 +13°C° 0 mm 6 mps 738 mmHg 59%
17:00 +11°C° 0 mm 6 mps 738 mmHg 60%
18:00 +9°C° 0 mm 5 mps 739 mmHg 62%
19:00 +9°C° 0 mm 5 mps 739 mmHg 62%
20:00 +9°C° 0 mm 6 mps 739 mmHg 62%
21:00 +9°C° 0 mm 6 mps 739 mmHg 62%
22:00 +9°C° 0 mm 6 mps 739 mmHg 67%
23:00 +8°C° 0 mm 6 mps 738 mmHg 72%

26 October, Monday

Time Temperature Precipitation Wind Pressure Humidity
00:00 +8°C° 0 mm 5 mps 738 mmHg 78%
01:00 +8°C° 0 mm 6 mps 739 mmHg 79%
02:00 +8°C° 0 mm 7 mps 739 mmHg 79%
03:00 +8°C° 0 mm 7 mps 739 mmHg 80%
04:00 +7°C° 0.1 mm 8 mps 740 mmHg 78%
05:00 +9°C° 0.1 mm 8 mps 740 mmHg 75%
06:00 +8°C° 0.1 mm 9 mps 741 mmHg 73%
07:00 +8°C° 0 mm 9 mps 742 mmHg 72%
08:00 +8°C° 0 mm 9 mps 742 mmHg 71%
09:00 +8°C° 0 mm 9 mps 743 mmHg 69%
10:00 +8°C° 0 mm 9 mps 744 mmHg 68%
11:00 +10°C° 0 mm 8 mps 745 mmHg 66%
12:00 +10°C° 0 mm 8 mps 745 mmHg 65%
13:00 +10°C° 0 mm 8 mps 746 mmHg 64%
14:00 +10°C° 0 mm 7 mps 746 mmHg 64%
15:00 +10°C° 0 mm 7 mps 747 mmHg 64%
16:00 +9°C° 0 mm 6 mps 747 mmHg 65%
17:00 +9°C° 0 mm 6 mps 748 mmHg 65%
18:00 +9°C° 0 mm 5 mps 749 mmHg 66%
19:00 +8°C° 0 mm 5 mps 749 mmHg 71%
20:00 +7°C° 0 mm 4 mps 749 mmHg 76%
21:00 +6°C° 0 mm 4 mps 750 mmHg 81%
22:00 +5°C° 0 mm 4 mps 750 mmHg 85%
23:00 +4°C° 0 mm 4 mps 750 mmHg 88%

27 October, Tuesday

Time Temperature Precipitation Wind Pressure Humidity
00:00 +3°C° 0 mm 3 mps 750 mmHg 91%
01:00 +3°C° 0 mm 3 mps 750 mmHg 91%
02:00 +2°C° 0 mm 3 mps 751 mmHg 90%
03:00 +2°C° 0 mm 3 mps 751 mmHg 90%
04:00 +2°C° 0 mm 3 mps 751 mmHg 88%
05:00 +1°C° 0 mm 3 mps 751 mmHg 86%
06:00 +1°C° 0 mm 3 mps 752 mmHg 84%
07:00 +1°C° 0 mm 4 mps 752 mmHg 76%
08:00 +4°C° 0 mm 4 mps 752 mmHg 69%
09:00 +5°C° 0 mm 4 mps 752 mmHg 61%
10:00 +7°C° 0 mm 4 mps 753 mmHg 52%
11:00 +10°C° 0 mm 4 mps 753 mmHg 43%
12:00 +11°C° 0 mm 4 mps 753 mmHg 34%
13:00 +12°C° 0 mm 4 mps 753 mmHg 33%
14:00 +12°C° 0 mm 4 mps 753 mmHg 32%
15:00 +12°C° 0 mm 4 mps 753 mmHg 31%
16:00 +11°C° 0 mm 3 mps 753 mmHg 37%
17:00 +9°C° 0 mm 3 mps 753 mmHg 43%
18:00 +7°C° 0 mm 3 mps 753 mmHg 49%
19:00 +5°C° 0 mm 3 mps 754 mmHg 55%
20:00 +5°C° 0 mm 3 mps 754 mmHg 60%
21:00 +4°C° 0 mm 3 mps 754 mmHg 66%
22:00 +4°C° 0 mm 3 mps 754 mmHg 71%
23:00 +4°C° 0 mm 3 mps 754 mmHg 76%
Show more